Location: Newark
(41.0400°S, 62.7845°W)
Time: 03:36:18
(UTC+00:00)

Vanguard 2 Rocket - Pass Details

Date: 30 November 2021
Orbit: 554 x 3325 km, 32.9° (Epoch: 21 January)

Event Time Altitude Azimuth Distance (km) Brightness Sun altitude
Rises 09:51:42 0° 310° (NW) 7,154 10.9 12.6°
Reaches altitude 10° 09:57:14 10° 315° (NW) 5,905 10.6 13.6°
Maximum altitude 10:12:36 42° 18° (NNE) 2,920 9.7 16.4°
Drops below altitude 10° 10:22:14 10° 84° (E) 3,771 11.7 18.1°
Sets 10:24:55 0° 91° (E) 4,440 12.0 18.6°
